This demonstration page uses our WeatherBlox Daily Observations layout. Learn more.

Left ArrowRight Arrow

36.17497, -115.13722

Hourly Observations for February 26, 2021

Temp ( °F °C ) Dew Point ( °F °C ) Humidity (%) Winds ( mph kmh ) Pressure ( in mb ) Visibility ( mi km ) Precip ( " mm )
12:53 am 00:53 Clear 41 5 0 -17.8 18 18 Calm 30.12 1020 10 16.0934 0 0
1:53 am 01:53 Clear 39 3.9 0 -17.8 19 19 NNW 5 7 30.11 1020 10 16.0934 0 0
2:53 am 02:53 Clear 36 2.2 3 -16.1 25 25 NW 5 7 30.1 1019 10 16.0934 0 0
3:53 am 03:53 Clear 37 2.8 3 -16.1 24 24 NW 5 7 30.11 1020 10 16.0934 0 0
4:53 am 04:53 Clear 37 2.8 0 -17.8 20 20 WNW 7 11 30.11 1020 10 16.0934 0 0
5:53 am 05:53 Clear 36 2.2 -2 -18.9 19 19 WNW 5 7 30.11 1020 10 16.0934 0 0
6:53 am 06:53 Sunny 38 3.3 0 -17.8 20 20 NW 5 7 30.12 1020 10 16.0934 0 0
7:53 am 07:53 Sunny 45 7.2 2 -16.7 16 16 Calm 30.14 1021 10 16.0934 0 0
8:53 am 08:53 Sunny 49 9.4 1 -17.2 14 14 ENE 3 6 30.13 1020 10 16.0934 0 0
9:53 am 09:53 Sunny 52 11.1 1 -17.2 12 12 ENE 7 11 30.11 1020 10 16.0934 0 0
10:53 am 10:53 Sunny 54 12.2 -1 -18.3 10 10 SSE 5 7 30.08 1019 10 16.0934 0 0
11:53 am 11:53 Sunny 57 13.9 -1 -18.3 9 9 SE 6 9 30.03 1017 10 16.0934 0 0
12:53 pm 12:53 Sunny 60 15.6 0 -17.8 9 9 VRB 6 9 29.97 1015 10 16.0934 0 0
1:53 pm 13:53 Sunny 62 16.7 1 -17.2 8 8 Calm 29.9 1013 10 16.0934 0 0
2:53 pm 14:53 Sunny 65 18.3 2 -16.7 8 8 SE 7 11 29.84 1010 10 16.0934 0 0
3:53 pm 15:53 Sunny 66 18.9 3 -16.1 8 8 E 8 13 29.79 1009 10 16.0934 0 0
4:53 pm 16:53 Sunny 67 19.4 2 -16.7 7 7 NE 5 7 29.76 1008 10 16.0934 0 0
5:53 pm 17:53 Clear 65 18.3 -5 -20.6 6 6 S 10 17 29.73 1007 10 16.0934 0 0
6:53 pm 18:53 Clear 65 18.3 -4 -20 6 6 SSW 12 19 29.71 1006 10 16.0934 0 0
7:53 pm 19:53 Clear 58 14.4 3 -16.1 11 11 NW 7 11 29.73 1007 10 16.0934 0 0
8:53 pm 20:53 Clear 58 14.4 1 -17.2 10 10 NNW 8 13 29.75 1007 10 16.0934 0 0
9:53 pm 21:53 Clear 53 11.7 2 -16.7 12 12 NW 5 7 29.77 1008 10 16.0934 0 0
10:53 pm 22:53 Clear 59 15 2 -16.7 10 10 NW 20 31 29.77 1008 10 16.0934 0 0
11:53 pm 23:53 Clear 56 13.3 5 -15 13 13 NNW 7 11 29.8 1009 10 16.0934 0 0

Powered by AerisWeather